• En España
  • Lista de países
  • Para 7 días
  • Temperatura del agua
  • Mapa Satelital
  • El tiempo en el mapa
  • Informadores
  • user-avatar
    Iniciar sesión

    Tiempo cada hora Andora

    Hoy, 20 Octubre, Sábado

    Tiempo Temperatura Precipitaciones Viento Presión Humedad
    00:00 +9°C° 0.2 mm 1 mps 627 mmHg 90%
    01:00 +9°C° 0.1 mm 1 mps 627 mmHg 90%
    02:00 +8°C° 0.1 mm 1 mps 627 mmHg 90%
    03:00 +8°C° 0.1 mm 1 mps 627 mmHg 90%
    04:00 +8°C° 0 mm 1 mps 627 mmHg 90%
    05:00 +8°C° 0 mm 1 mps 627 mmHg 89%
    06:00 +8°C° 0 mm 1 mps 628 mmHg 89%
    07:00 +9°C° 0.1 mm 1 mps 629 mmHg 84%
    08:00 +11°C° 0.1 mm 1 mps 629 mmHg 79%
    09:00 +12°C° 0.1 mm 1 mps 630 mmHg 74%
    10:00 +13°C° 0.4 mm 1 mps 631 mmHg 71%
    11:00 +14°C° 0.4 mm 1 mps 631 mmHg 68%
    12:00 +15°C° 0.4 mm 1 mps 631 mmHg 65%
    13:00 +14°C° 1.2 mm 1 mps 631 mmHg 68%
    14:00 +14°C° 1.2 mm 1 mps 631 mmHg 70%
    15:00 +13°C° 1.2 mm 1 mps 630 mmHg 73%
    16:00 +12°C° 1 mm 1 mps 630 mmHg 78%
    17:00 +11°C° 1 mm 1 mps 630 mmHg 83%
    18:00 +9°C° 1 mm 0 mps 629 mmHg 87%
    19:00 +9°C° 0.1 mm 1 mps 629 mmHg 87%
    20:00 +9°C° 0.1 mm 1 mps 629 mmHg 87%
    21:00 +9°C° 0.1 mm 1 mps 629 mmHg 87%
    22:00 +8°C° 0 mm 1 mps 629 mmHg 86%
    23:00 +8°C° 0 mm 1 mps 629 mmHg 86%

    Mañana, 21 Octubre, Domingo

    Tiempo Temperatura Precipitaciones Viento Presión Humedad
    00:00 +8°C° 0 mm 1 mps 629 mmHg 85%
    01:00 +8°C° 0 mm 1 mps 629 mmHg 84%
    02:00 +7°C° 0 mm 1 mps 629 mmHg 83%
    03:00 +7°C° 0 mm 1 mps 628 mmHg 83%
    04:00 +7°C° 0 mm 1 mps 628 mmHg 82%
    05:00 +7°C° 0 mm 1 mps 628 mmHg 82%
    06:00 +7°C° 0 mm 1 mps 628 mmHg 81%
    07:00 +9°C° 0 mm 1 mps 629 mmHg 76%
    08:00 +11°C° 0 mm 1 mps 630 mmHg 70%
    09:00 +12°C° 0 mm 0 mps 631 mmHg 64%
    10:00 +14°C° 0 mm 1 mps 631 mmHg 60%
    11:00 +15°C° 0 mm 1 mps 631 mmHg 56%
    12:00 +16°C° 0 mm 1 mps 631 mmHg 52%
    13:00 +16°C° 0 mm 2 mps 631 mmHg 54%
    14:00 +16°C° 0 mm 2 mps 630 mmHg 55%
    15:00 +16°C° 0 mm 2 mps 630 mmHg 57%
    16:00 +13°C° 0 mm 2 mps 629 mmHg 66%
    17:00 +10°C° 0 mm 2 mps 628 mmHg 75%
    18:00 +8°C° 0 mm 2 mps 627 mmHg 84%
    19:00 +8°C° 0 mm 2 mps 627 mmHg 83%
    20:00 +7°C° 0 mm 2 mps 627 mmHg 81%
    21:00 +7°C° 0 mm 2 mps 627 mmHg 79%
    22:00 +7°C° 0 mm 2 mps 627 mmHg 75%
    23:00 +6°C° 0 mm 2 mps 627 mmHg 70%

    Pasado mañana, 22 Octubre, Lunes

    Tiempo Temperatura Precipitaciones Viento Presión Humedad
    00:00 +6°C° 0 mm 2 mps 627 mmHg 66%
    01:00 +6°C° 0 mm 2 mps 627 mmHg 65%
    02:00 +6°C° 0 mm 2 mps 627 mmHg 65%
    03:00 +6°C° 0 mm 2 mps 627 mmHg 64%
    04:00 +6°C° 0 mm 2 mps 627 mmHg 64%
    05:00 +5°C° 0 mm 2 mps 627 mmHg 63%
    06:00 +5°C° 0 mm 2 mps 627 mmHg 63%
    07:00 +7°C° 0 mm 2 mps 628 mmHg 58%
    08:00 +9°C° 0 mm 2 mps 629 mmHg 54%
    09:00 +12°C° 0 mm 2 mps 630 mmHg 49%
    10:00 +13°C° 0 mm 2 mps 631 mmHg 47%
    11:00 +14°C° 0 mm 2 mps 631 mmHg 45%
    12:00 +15°C° 0 mm 2 mps 631 mmHg 43%
    13:00 +13°C° 0 mm 3 mps 631 mmHg 46%
    14:00 +12°C° 0 mm 3 mps 631 mmHg 49%
    15:00 +12°C° 0 mm 3 mps 630 mmHg 52%
    16:00 +10°C° 0 mm 3 mps 630 mmHg 60%
    17:00 +8°C° 0 mm 3 mps 629 mmHg 69%
    18:00 +6°C° 0 mm 2 mps 629 mmHg 78%
    19:00 +4°C° 0 mm 3 mps 629 mmHg 75%
    20:00 +4°C° 0 mm 3 mps 629 mmHg 72%
    21:00 +3°C° 0 mm 3 mps 629 mmHg 68%
    22:00 +3°C° 0 mm 3 mps 629 mmHg 70%
    23:00 +3°C° 0 mm 3 mps 629 mmHg 71%

    23 Octubre, Martes

    Tiempo Temperatura Precipitaciones Viento Presión Humedad
    00:00 +3°C° 0 mm 3 mps 629 mmHg 72%
    01:00 +2°C° 0 mm 3 mps 629 mmHg 72%
    02:00 +2°C° 0 mm 3 mps 629 mmHg 72%
    03:00 +2°C° 0 mm 3 mps 628 mmHg 72%
    04:00 +2°C° 0 mm 3 mps 628 mmHg 71%
    05:00 +2°C° 0 mm 3 mps 629 mmHg 70%
    06:00 +1°C° 0 mm 3 mps 629 mmHg 69%
    07:00 +3°C° 0 mm 3 mps 629 mmHg 63%
    08:00 +5°C° 0 mm 3 mps 630 mmHg 58%
    09:00 +7°C° 0 mm 3 mps 631 mmHg 52%
    10:00 +9°C° 0 mm 3 mps 631 mmHg 48%
    11:00 +10°C° 0 mm 3 mps 631 mmHg 44%
    12:00 +11°C° 0 mm 3 mps 632 mmHg 40%
    13:00 +11°C° 0 mm 3 mps 631 mmHg 42%
    14:00 +10°C° 0 mm 3 mps 631 mmHg 44%
    15:00 +10°C° 0 mm 3 mps 630 mmHg 46%
    16:00 +8°C° 0 mm 3 mps 630 mmHg 56%
    17:00 +5°C° 0 mm 3 mps 629 mmHg 67%
    18:00 +3°C° 0 mm 3 mps 629 mmHg 77%
    19:00 +2°C° 0 mm 3 mps 629 mmHg 78%
    20:00 +2°C° 0 mm 3 mps 629 mmHg 78%
    21:00 +2°C° 0 mm 3 mps 629 mmHg 79%
    22:00 +2°C° 0 mm 3 mps 629 mmHg 75%
    23:00 +2°C° 0 mm 3 mps 629 mmHg 72%

    24 Octubre, Miércoles

    Tiempo Temperatura Precipitaciones Viento Presión Humedad
    00:00 +2°C° 0 mm 3 mps 628 mmHg 69%
    01:00 +1°C° 0 mm 3 mps 628 mmHg 67%
    02:00 +1°C° 0 mm 3 mps 628 mmHg 65%
    03:00 +1°C° 0 mm 3 mps 628 mmHg 63%
    04:00 +1°C° 0 mm 3 mps 628 mmHg 62%
    05:00 +1°C° 0 mm 3 mps 628 mmHg 62%
    06:00 +2°C° 0 mm 2 mps 628 mmHg 61%
    07:00 +3°C° 0 mm 3 mps 629 mmHg 56%
    08:00 +5°C° 0 mm 3 mps 630 mmHg 52%
    09:00 +9°C° 0 mm 3 mps 631 mmHg 47%
    10:00 +10°C° 0 mm 3 mps 631 mmHg 45%
    11:00 +11°C° 0 mm 3 mps 632 mmHg 43%
    12:00 +12°C° 0 mm 3 mps 632 mmHg 41%
    13:00 +12°C° 0 mm 3 mps 632 mmHg 42%
    14:00 +12°C° 0 mm 3 mps 631 mmHg 44%
    15:00 +11°C° 0 mm 3 mps 631 mmHg 46%
    16:00 +9°C° 0 mm 3 mps 630 mmHg 52%
    17:00 +7°C° 0 mm 3 mps 629 mmHg 59%
    18:00 +5°C° 0 mm 2 mps 629 mmHg 66%
    19:00 +5°C° 0 mm 2 mps 629 mmHg 64%
    20:00 +5°C° 0 mm 2 mps 629 mmHg 63%
    21:00 +5°C° 0 mm 2 mps 629 mmHg 61%
    22:00 +5°C° 0 mm 2 mps 629 mmHg 63%
    23:00 +5°C° 0 mm 2 mps 629 mmHg 64%

    25 Octubre, Jueves

    Tiempo Temperatura Precipitaciones Viento Presión Humedad
    00:00 +5°C° 0 mm 2 mps 628 mmHg 65%
    01:00 +5°C° 0 mm 2 mps 628 mmHg 65%
    02:00 +5°C° 0 mm 2 mps 628 mmHg 65%
    03:00 +5°C° 0 mm 2 mps 628 mmHg 64%
    04:00 +5°C° 0 mm 2 mps 628 mmHg 64%
    05:00 +5°C° 0 mm 2 mps 628 mmHg 63%
    06:00 +5°C° 0 mm 2 mps 628 mmHg 63%
    07:00 +7°C° 0 mm 2 mps 629 mmHg 57%
    08:00 +9°C° 0 mm 2 mps 630 mmHg 52%
    09:00 +12°C° 0 mm 2 mps 631 mmHg 47%
    10:00 +14°C° 0 mm 2 mps 631 mmHg 44%
    11:00 +15°C° 0 mm 2 mps 631 mmHg 40%
    12:00 +17°C° 0 mm 2 mps 632 mmHg 37%
    13:00 +16°C° 0 mm 2 mps 631 mmHg 40%
    14:00 +16°C° 0 mm 2 mps 631 mmHg 42%
    15:00 +15°C° 0 mm 1 mps 630 mmHg 45%
    16:00 +13°C° 0 mm 1 mps 630 mmHg 54%
    17:00 +10°C° 0 mm 1 mps 629 mmHg 62%
    18:00 +8°C° 0 mm 1 mps 628 mmHg 71%
    19:00 +8°C° 0 mm 1 mps 628 mmHg 68%
    20:00 +7°C° 0 mm 1 mps 628 mmHg 64%
    21:00 +7°C° 0 mm 1 mps 628 mmHg 61%
    22:00 +7°C° 0 mm 1 mps 628 mmHg 56%
    23:00 +7°C° 0 mm 1 mps 627 mmHg 52%
    Mostrar más